STARLINK-34461

Last updated on Thu Jul 03 2025 00:02:07 GMT+0000 (Coordinated Universal Time)

1 64418U 25129G 25183.58335648 -.01558303 00000+0 -18497-1 0 9999 2 64418 70.0002 351.5693 0003240 265.9995 17.1367 15.63977512 3688
UTC large
Height (km)
Speed (km/s)
/
Latitude / Longitude
Inclination (degrees)
Orbital Period (minutes)
Azimuth
Elevation
Range (km)
Doppler Factor

Next 0 passes for location: London (51.5072 / 0.1276)

Sorry there are no passes over London.